Home > Weather > Barysaw > Past weeks

Flag for Belarus Past Weather in Barysaw, Belarus — Yesterday and Last 2 Weeks

Now
73 °F

Broken clouds.


Feels Like: 76 °F
Forecast: 61 / 80 °F
Wind: 8 mph from Northeast

Location: Minsk

Current Time: May 29, 2016 at 8:20:24 PM

Latest Report: May 29, 2016 at 8:00 PM


Visibility: N/A

Pressure: 29.98 "Hg

Humidity: 61%

Dew Point: 59 °F

Location of BarysawLocation

Past Weather in Barysaw — Graph

°F

Barysaw Temperature Yesterday

Maximum temperature yesterday: 79 °F (at 4:00 PM)
Minimum temperature yesterday: 52 °F (at 3:30 AM)
Average temperature yesterday: 67 °F

High & Low Weather Summary for the Past Weeks

 TemperatureHumidityPressure
High79 °F (May 28, 4:00 PM)100% (May 15, 9:00 PM)30.12 "Hg (May 15, 9:00 PM)
Low34 °F (May 18, 5:00 AM)29% (May 23, 3:00 PM)29.53 "Hg (May 14, 7:00 PM)
Average57 °F71%29.89 "Hg
* Reported May 14 7:00 PM — May 29 7:00 PM, Barysaw, Weather by CustomWeather, © 2016

Note: Actual official high and low records may vary slightly from our data, if they occured in-between our weather recording intervals... More about our weather records

Advertising

Barysaw Weather History for the Previous 24 Hours

Scroll right to see more
 ConditionsComfort  
Time TempWeatherWind HumidityBarometerVisibility
7:00 PM
Sun, May 29
75 °FBroken clouds.10 mph57%29.98 "HgN/A
6:30 PM77 °FBroken clouds.8 mph54%29.95 "HgN/A
6:00 PM77 °FBroken clouds.10 mph54%29.95 "HgN/A
5:30 PM75 °FBroken clouds.8 mph57%29.98 "HgN/A
5:00 PM77 °FBroken clouds.8 mph54%29.98 "HgN/A
4:30 PM77 °FBroken clouds.8 mph54%29.98 "HgN/A
4:00 PM75 °FBroken clouds.8 mph57%29.98 "HgN/A
3:30 PM75 °FBroken clouds.10 mph57%29.98 "HgN/A
3:00 PM75 °FBroken clouds.6 mph57%30.01 "HgN/A
2:30 PM75 °FBroken clouds.8 mph57%30.01 "HgN/A
2:00 PM75 °FPartly sunny.10 mph54%30.01 "HgN/A
1:30 PM77 °FPartly sunny.8 mph51%30.01 "HgN/A
1:00 PM75 °FPartly sunny.10 mph54%30.01 "HgN/A
12:30 PM73 °FPartly sunny.10 mph61%30.01 "HgN/A
12:00 PM72 °FPartly sunny.8 mph65%30.04 "HgN/A
11:30 AM72 °FBroken clouds.8 mph69%30.04 "HgN/A
11:00 AM72 °FBroken clouds.8 mph65%30.04 "HgN/A
10:30 AM70 °FBroken clouds.3 mph69%30.04 "HgN/A
10:00 AM68 °FBroken clouds.6 mph78%30.04 "HgN/A
9:30 AM66 °FSprinkles. Broken clouds.3 mph78%30.04 "HgN/A
9:00 AM64 °FPassing clouds.3 mph83%30.04 "HgN/A
8:30 AM63 °FCloudy.3 mph88%30.04 "HgN/A
8:00 AM63 °FPartly sunny.6 mph83%30.04 "HgN/A
7:30 AM63 °FPartly sunny.6 mph83%30.07 "HgN/A
7:00 AM61 °FPassing clouds.3 mph88%30.04 "HgN/A
6:30 AM61 °FPassing clouds.3 mph88%30.04 "HgN/A
6:00 AM61 °FSunny.3 mph88%30.04 "Hg10 mi
5:30 AM59 °FClear.3 mph88%30.04 "Hg10 mi
5:00 AM59 °FClear.1 mph88%30.04 "Hg10 mi
4:30 AM61 °FClear.3 mph83%30.04 "Hg10 mi
4:00 AM61 °FClear.3 mph83%30.04 "Hg10 mi
3:30 AM61 °FPassing clouds.6 mph83%30.04 "HgN/A
3:00 AM63 °FClear.3 mph77%30.04 "Hg10 mi
2:30 AM63 °FPassing clouds.3 mph77%30.07 "HgN/A
2:00 AM63 °FClear.No wind83%30.07 "Hg10 mi
1:30 AM63 °FClear.1 mph83%30.07 "Hg10 mi
1:00 AM64 °FClear.1 mph78%30.07 "Hg10 mi
12:30 AM64 °FClear.1 mph78%30.07 "Hg10 mi
12:00 AM64 °FClear.3 mph78%30.07 "Hg10 mi
11:30 PM
Sat, May 28
66 °FClear.3 mph73%30.07 "Hg10 mi
11:00 PM66 °FClear.No wind68%30.07 "Hg10 mi
10:30 PM66 °FClear.1 mph68%30.07 "Hg10 mi
10:00 PM66 °FBroken clouds.3 mph64%30.07 "HgN/A
9:30 PM68 °FBroken clouds.6 mph60%30.07 "HgN/A
9:00 PM72 °FPassing clouds.8 mph53%30.07 "HgN/A
8:30 PM73 °FPassing clouds.13 mph50%30.04 "HgN/A
8:00 PM75 °FPassing clouds.8 mph47%30.04 "HgN/A
Weather by CustomWeather, © 2016

See weather overviewHow to use our weather pages